TimeEST,TemperatureF,Dew PointF,Humidity,Sea Level PressureIn,VisibilityMPH,Wind Direction,Wind SpeedMPH,Gust SpeedMPH,PrecipitationIn,Events,Conditions,WindDirDegrees,DateUTC
12:53 AM,72.0,66.9,84,30.07,10.0,East,6.9,-,N/A,,Overcast,80,2013-02-21 05:53:00
1:53 AM,70.0,66.9,90,30.04,10.0,East,6.9,-,N/A,,Overcast,90,2013-02-21 06:53:00
2:53 AM,70.0,66.0,87,30.04,10.0,East,3.5,-,N/A,,Mostly Cloudy,90,2013-02-21 07:53:00
3:53 AM,66.9,64.0,90,30.02,10.0,East,3.5,-,N/A,,Scattered Clouds,80,2013-02-21 08:53:00
4:53 AM,69.1,64.9,87,30.02,10.0,SE,5.8,-,N/A,,Clear,130,2013-02-21 09:53:00
5:53 AM,69.1,64.9,87,30.03,10.0,SE,5.8,-,N/A,,Clear,130,2013-02-21 10:53:00
6:53 AM,66.9,64.9,93,30.05,10.0,East,3.5,-,N/A,,Clear,90,2013-02-21 11:53:00
7:53 AM,70.0,66.0,87,30.07,10.0,ENE,3.5,-,N/A,,Clear,70,2013-02-21 12:53:00
8:53 AM,77.0,66.0,69,30.09,10.0,ESE,9.2,-,N/A,,Clear,110,2013-02-21 13:53:00
9:53 AM,79.0,64.0,60,30.10,10.0,SE,12.7,17.3,N/A,,Partly Cloudy,130,2013-02-21 14:53:00
10:53 AM,81.0,64.0,56,30.09,10.0,ESE,12.7,-,N/A,,Partly Cloudy,120,2013-02-21 15:53:00
11:53 AM,81.0,64.9,58,30.09,10.0,ESE,12.7,-,N/A,,Scattered Clouds,120,2013-02-21 16:53:00
12:53 PM,82.0,64.9,56,30.07,10.0,East,15.0,18.4,N/A,,Scattered Clouds,100,2013-02-21 17:53:00
1:53 PM,80.1,64.9,60,30.06,10.0,ESE,12.7,19.6,N/A,,Scattered Clouds,110,2013-02-21 18:53:00
2:53 PM,81.0,66.0,60,30.04,10.0,East,12.7,-,N/A,,Scattered Clouds,100,2013-02-21 19:53:00
3:05 PM,80.6,66.2,61,30.04,10.0,East,11.5,20.7,N/A,,Mostly Cloudy,100,2013-02-21 20:05:00
3:15 PM,80.6,66.2,61,30.04,10.0,ESE,11.5,-,N/A,,Scattered Clouds,110,2013-02-21 20:15:00
3:53 PM,79.0,64.9,62,30.03,10.0,ESE,10.4,17.3,N/A,,Clear,110,2013-02-21 20:53:00
4:53 PM,75.9,64.0,67,30.04,10.0,East,9.2,-,N/A,,Clear,100,2013-02-21 21:53:00
5:53 PM,75.0,64.0,69,30.05,10.0,East,12.7,-,N/A,,Clear,100,2013-02-21 22:53:00
6:53 PM,72.0,64.9,78,30.05,10.0,East,10.4,-,N/A,,Clear,100,2013-02-21 23:53:00
7:53 PM,70.0,66.0,87,30.05,10.0,East,8.1,-,N/A,,Clear,100,2013-02-22 00:53:00
8:53 PM,70.0,66.9,90,30.06,10.0,East,6.9,-,N/A,,Clear,100,2013-02-22 01:53:00
9:53 PM,68.0,64.9,90,30.06,10.0,East,6.9,-,N/A,,Clear,90,2013-02-22 02:53:00
10:53 PM,69.1,66.0,90,30.07,10.0,East,5.8,-,N/A,,Scattered Clouds,80,2013-02-22 03:53:00
11:53 PM,69.1,66.9,93,30.06,10.0,East,6.9,-,N/A,,Clear,100,2013-02-22 04:53:00